[[[{"header":{"parameterUnit":"kt","parameterCategory":2,"dx":1,"dy":1,"la1":30.253999710083008,"la2":30.299108505249023,"lo1":-89.0895004272461,"lo2":-89.04439544677734,"nx":28,"ny":28,"refTime":"2022-09-27T15:00:00:Z","depth":0,"parameterNumber":1,"parameterNumberName":"U-component_of_WINDS"},"data":[-6.7201,-6.7414,-6.7372,-6.7595,-6.7595,-6.774,-6.7779,-6.7824,-6.7848,-6.8015,-6.8104,-6.8082,-6.8089,-6.8184,-6.8278,-6.8265,-6.8311,-6.8416,-6.8386,-6.795,-6.7887,-6.7827,-6.7777,-6.8425,-6.8426,-6.8846,-6.885,-6.8853,-6.6883,-6.6885,-6.699,-6.7065,-6.7154,-6.7026,-6.7074,-6.7159,-6.7292,-6.7323,-6.7408,-6.7552,-6.7659,-6.763,-6.7727,-6.7825,-6.7772,-6.7854,-6.7851,-6.7855,-6.7385,-6.7332,-6.7896,-6.7896,-6.7895,-6.7895,-6.7895,-6.7895,-6.6294,-6.6423,-6.6444,-6.6557,-6.6582,-6.6632,-6.6748,-6.6718,-6.6821,-6.6917,-6.6844,-6.6995,-6.7018,-6.7113,-6.7134,-6.7249,-6.7151,-6.7229,-6.725,-6.7273,-6.7306,-6.6714,-6.7262,-6.726,-6.7259,-6.7257,-6.7256,0,-6.5852,-6.5808,-6.5906,-6.5993,-6.6073,-6.6135,-6.6185,-6.6255,-6.6146,-6.6236,-6.6361,-6.6426,-6.6554,-6.6668,-6.6748,-6.6753,-6.6635,-6.6615,-6.667,-6.6713,-6.6739,-6.6734,-6.5977,-6.6602,-6.6596,-6.6592,-6.6589,-6.6587,-6.526,-6.5415,-6.5415,-6.549,-6.5507,-6.5629,-6.5693,-6.5585,-6.5658,-6.5703,-6.5822,-6.5933,-6.6017,-6.6225,-6.619,-6.6286,-6.623,-6.6474,-6.6245,-6.6276,-6.6242,-6.6237,-6.6253,-6.6525,-6.6533,-6.6539,-6.6544,0,-6.4933,-6.4862,-6.5088,-6.5072,-6.5073,-6.524,-6.5227,-6.5351,-6.5308,-6.5473,-6.5505,-6.544,-6.5565,-6.5489,-6.5617,-6.5574,-6.5851,-6.579,-6.5842,-6.5829,-6.6044,-6.6028,-6.6746,-6.6836,-6.6155,-6.6161,-6.6166,0,-6.4404,-6.4611,-6.4495,-6.463,-6.4855,-6.4741,-6.4967,-6.4954,-6.4972,-6.5101,-6.495,-6.5074,-6.4957,-6.507,-6.5007,-6.5218,-6.524,-6.5223,-6.5206,-6.5242,-6.5245,-6.5285,-6.5258,-6.5151,-6.5148,-6.5144,-6.5142,0,-6.3905,-6.4083,-6.4299,-6.4329,-6.4335,-6.4439,-6.4446,-6.4465,-6.453,-6.4599,-6.464,-6.473,-6.4781,-6.4852,-6.4773,-6.462,-6.5027,-6.4801,-6.501,-6.5013,-6.5111,-6.5108,-6.5754,-6.5137,-6.5136,-6.5135,-6.5134,0,-6.3471,-6.3544,-6.3867,-6.3868,-6.392,-6.4062,-6.4144,-6.4247,-6.4279,-6.4248,-6.4303,-6.4196,-6.4371,-6.4152,-6.4392,-6.4217,-6.4276,-6.4273,-6.4286,-6.4305,-6.4065,-6.4449,-6.5066,-6.5131,-6.4312,-6.4305,-6.4298,0,-6.2921,-6.3228,-6.3134,-6.3444,-6.3576,-6.34,-6.3555,-6.3587,-6.356,-6.3667,-6.3634,-6.3759,-6.358,-6.3609,-6.3736,-6.3711,-6.3938,-6.3677,-6.384,-6.3847,-6.3844,-6.4409,-6.4524,-6.4937,-6.421,-6.4219,-6.4226,0,-6.2487,-6.2492,-6.2554,-6.2585,-6.2609,-6.2719,-6.2896,-6.2994,-6.3072,-6.3123,-6.3273,-6.3441,-6.3315,-6.3365,-6.3288,-6.3425,-6.3781,-6.3272,-6.3271,-6.3372,-6.4156,-6.4265,-6.4335,-6.3698,-6.3709,-6.3718,-6.4155,0,-6.1857,-6.2001,-6.2163,-6.2235,-6.2307,-6.2495,-6.2416,-6.2502,-6.242,-6.2387,-6.2602,-6.261,-6.2712,-6.2768,-6.2691,-6.3028,-6.2962,-6.2825,-6.2615,-6.2983,-6.3126,-6.3183,-6.2408,-6.2401,-6.2395,-6.239,0,0,-6.1353,-6.1558,-6.145,-6.1619,-6.1674,-6.149,-6.17,-6.173,-6.1801,-6.1844,-6.1722,-6.1967,-6.198,-6.2251,-6.2359,-6.2398,-6.2453,-6.2328,-6.2806,-6.2853,-6.2896,-6.305,-6.3111,-6.238,-6.2378,-6.2376,-6.2374,0,-6.1109,-6.1122,-6.133,-6.1357,-6.1394,-6.1349,-6.1398,-6.1404,-6.1393,-6.1601,-6.145,-6.1569,-6.1768,-6.1803,-6.1847,-6.2291,-6.2173,-6.2326,-6.2594,-6.2752,-6.2806,-6.2854,-6.3016,-6.3076,-6.2361,-6.2362,-6.2362,0,-6.0673,-6.0675,-6.0766,-6.088,-6.0903,-6.1043,-6.08,-6.0958,-6.1061,-6.0855,-6.1067,-6.1062,-6.1101,-6.1365,-6.148,-6.1375,-6.1924,-6.1735,-6.1769,-6.1782,-6.1931,-6.1997,-6.2055,-6.1291,-6.1288,-6.1285,0,0,-6.0473,-6.0605,-6.0576,-6.0822,-6.0847,-6.0783,-6.0849,-6.0776,-6.0814,-6.0831,-6.0823,-6.0867,-6.098,-6.1058,-6.1161,-6.1461,-6.1463,-6.1606,-6.1657,-6.1698,-6.1735,-6.1895,-6.196,-6.1272,-6.1272,-6.1271,0,0,-6.0378,-6.0354,-6.0265,-6.054,-6.0581,-6.0571,-6.0725,-6.0616,-6.0701,-6.0671,-6.0556,-6.0563,-6.0807,-6.0809,-6.0646,-6.1086,-6.0877,-6.0914,-6.1077,-6.114,-6.1189,-6.1187,-6.0402,0,0,0,0,0,-6.0089,-6.0356,-6.0276,-6.031,-6.0455,-6.0615,-6.0633,-6.0543,-6.0397,-6.0521,-6.0497,-6.0364,-6.0697,-6.055,-6.0587,-6.0773,-6.1106,-6.1136,-6.1163,-6.1443,-6.151,-6.1566,0,0,0,0,0,0,-6.0102,-6.0145,-6.0268,-6.0271,-6.0302,-6.0604,-6.0338,-6.032,-6.0382,-6.0353,-6.0373,-6.0365,-6.0292,-6.0525,-6.056,-6.0738,-6.039,-6.1118,-6.1143,-6.1165,-6.1466,-6.152,-6.1567,0,0,0,0,0,-6.0112,-6.0146,-6.0401,-6.0266,-6.0294,-6.0238,-6.0327,-6.031,-6.0356,-6.0321,-6.0308,-6.0283,-6.03,-6.0323,-6.0545,-6.0725,-6.0366,-6.0379,-6.1134,-6.1154,-6.1171,-6.1493,0,0,0,0,0,0,-6.0119,-6.0132,-6.0405,-6.041,-6.0159,-6.0219,-6.0225,-6.0303,-6.0317,-6.0308,-6.0224,-6.0202,-6.0309,-6.0324,-6.0343,-6.0725,-6.0346,-6.036,-6.0368,-6.1149,-6.1164,-6.1178,0,0,0,0,0,0,-6.0113,-6.0138,-6.0407,-6.0277,-6.0266,-6.0202,-6.0208,-6.0384,-6.032,-6.022,-6.0201,-6.0214,-6.0281,-6.0327,-6.0341,-6.0619,-6.0331,-6.0344,-6.0353,-6.0358,-6.1161,-6.1173,0,0,0,0,0,0,-6.0122,-6.0143,-6.0275,-6.0267,-6.0257,-6.0307,-6.0356,-6.051,-6.0208,-6.0222,-6.0178,-6.0164,-6.0288,-6.0299,-6.0341,-6.0614,-6.0618,-6.0331,-6.034,-6.0346,-6.035,0,0,0,0,0,0,0,-6.0129,-6.0009,-6.0375,-6.0259,-6.0249,-6.0456,-6.0458,-6.0459,-6.0205,-6.0193,-6.0181,-6.017,-6.0258,-6.0272,-6.0286,-6.061,0,0,-6.033,-6.0336,0,0,0,0,0,0,0,0,-5.9998,-6.0006,-6.0375,-6.0376,-6.0377,-6.0456,-6.0458,-6.0459,-6.0203,-6.0193,-6.0183,-6.0175,-6.0262,-6.0273,-6.0284,0,0,0,0,0,0,0,0,0,0,0,0,0,0,0,-6.0375,-6.0376,0,-6.0457,-6.0458,-6.0458,-6.0201,-6.0193,-6.0186,-6.0178,-6.0265,-6.0274,-6.0284,0,0,0,0,0,0,0,0,0,0,0,0,0,0,0,0,0,0,0,0,0,0,0,0,0,0,0,0,0,0,0,0,0,0,0,0,0,0,0,0,0,0,0,0,0,0,0,0,0,0,0,0,0,0,0,0,0,0,0,0,0,0,0,0,0,0,0,0,0]}],[{"header":{"parameterUnit":"kt","parameterCategory":2,"dx":1,"dy":1,"la1":30.253999710083008,"la2":30.299108505249023,"lo1":-89.0895004272461,"lo2":-89.04439544677734,"nx":28,"ny":28,"refTime":"2022-09-27T15:00:00:Z","depth":0,"parameterNumber":2,"parameterNumberName":"V-component_of_WINDS"},"data":[-16.4412,-16.4675,-16.4643,-16.4926,-16.4944,-16.5129,-16.5185,-16.5252,-16.5295,-16.5509,-16.5624,-16.5614,-16.5641,-16.5767,-16.5887,-16.5878,-16.5931,-16.6048,-16.6018,-16.5529,-16.5459,-16.5392,-16.5329,-16.6061,-16.6061,-16.6528,-16.6532,-16.6535,-16.4055,-16.4077,-16.4219,-16.4333,-16.4452,-16.432,-16.4397,-16.4504,-16.4672,-16.4728,-16.4841,-16.5024,-16.5162,-16.5148,-16.5274,-16.539,-16.5333,-16.5426,-16.5417,-16.5422,-16.4899,-16.4833,-16.5471,-16.5471,-16.547,-16.547,-16.547,-16.547,-16.3395,-16.3555,-16.3605,-16.3757,-16.3805,-16.388,-16.4024,-16.401,-16.4144,-16.4276,-16.4206,-16.4394,-16.444,-16.4573,-16.4607,-16.4749,-16.4638,-16.4728,-16.4751,-16.4774,-16.4807,-16.4137,-16.4768,-16.4766,-16.4765,-16.4763,-16.4762,0,-16.2902,-16.2864,-16.2997,-16.3122,-16.323,-16.3321,-16.3398,-16.3486,-16.3388,-16.3503,-16.3664,-16.375,-16.3919,-16.4063,-16.4172,-16.4188,-16.4058,-16.4041,-16.4102,-16.4139,-16.4159,-16.415,-16.3299,-16.4023,-16.4016,-16.4011,-16.4008,-16.4005,-16.2233,-16.2423,-16.2459,-16.2557,-16.2591,-16.275,-16.2836,-16.2736,-16.2831,-16.2908,-16.3051,-16.3195,-16.3306,-16.3566,-16.3541,-16.3665,-16.3603,-16.3883,-16.362,-16.3648,-16.3605,-16.3595,-16.3612,-16.3936,-16.3945,-16.3952,-16.3958,0,-16.1859,-16.1804,-16.2087,-16.2102,-16.2111,-16.2314,-16.2324,-16.2477,-16.2444,-16.2648,-16.2689,-16.2638,-16.2796,-16.2725,-16.289,-16.2847,-16.3172,-16.3108,-16.3155,-16.3138,-16.3382,-16.336,-16.4185,-16.4287,-16.3528,-16.3536,-16.3542,0,-16.1266,-16.1519,-16.1421,-16.1588,-16.1864,-16.1757,-16.2031,-16.203,-16.2069,-16.2229,-16.2071,-16.2224,-16.2108,-16.225,-16.2188,-16.244,-16.2471,-16.2453,-16.2433,-16.2468,-16.247,-16.2514,-16.2479,-16.2383,-16.2378,-16.2375,-16.2371,0,-16.0686,-16.093,-16.1201,-16.1247,-16.1288,-16.1416,-16.1438,-16.1481,-16.1566,-16.1663,-16.1716,-16.1838,-16.1904,-16.1998,-16.1918,-16.1742,-16.2225,-16.1967,-16.2206,-16.2209,-16.2317,-16.2311,-16.306,-16.2366,-16.2365,-16.2364,-16.2362,0,-16.0198,-16.0305,-16.0707,-16.0736,-16.0803,-16.0981,-16.1095,-16.123,-16.1286,-16.1259,-16.1335,-16.122,-16.1437,-16.1185,-16.148,-16.1274,-16.1347,-16.1349,-16.1365,-16.1379,-16.11,-16.1532,-16.2253,-16.2325,-16.1393,-16.1385,-16.1378,0,-15.9548,-15.994,-15.9851,-16.0235,-16.0405,-16.0217,-16.0411,-16.0466,-16.0446,-16.0584,-16.0558,-16.0717,-16.0514,-16.0553,-16.0709,-16.0689,-16.0957,-16.065,-16.0845,-16.0854,-16.0837,-16.15,-16.1625,-16.2103,-16.1273,-16.1284,-16.1292,0,-15.9038,-15.9088,-15.9164,-15.921,-15.9269,-15.9411,-15.9635,-15.9769,-15.9866,-15.9945,-16.0127,-16.0347,-16.0202,-16.027,-16.0188,-16.0354,-16.0772,-16.0176,-16.0176,-16.0285,-16.1215,-16.1332,-16.1414,-16.068,-16.0692,-16.0702,-16.1209,0,-15.8311,-15.85,-15.87,-15.8812,-15.8911,-15.9147,-15.9075,-15.9186,-15.9099,-15.9072,-15.9339,-15.9365,-15.9499,-15.9571,-15.9487,-15.9891,-15.9811,-15.9656,-15.9405,-15.9841,-16.0006,-16.0074,-15.9165,-15.9157,-15.9151,-15.9145,0,0,-15.7703,-15.7972,-15.7868,-15.8084,-15.816,-15.7961,-15.8219,-15.8269,-15.8377,-15.8432,-15.8292,-15.8607,-15.8634,-15.8966,-15.9096,-15.9151,-15.9215,-15.9066,-15.9634,-15.9689,-15.974,-15.9918,-15.9989,-15.9134,-15.9131,-15.9129,-15.9127,0,-15.7423,-15.7461,-15.7721,-15.7769,-15.7836,-15.7796,-15.7859,-15.7889,-15.7884,-15.8147,-15.7976,-15.8127,-15.8383,-15.8433,-15.8492,-15.9024,-15.8885,-15.907,-15.9382,-15.9571,-15.9634,-15.969,-15.9879,-15.9948,-15.9111,-15.9112,-15.9112,0,-15.6906,-15.6931,-15.7049,-15.7216,-15.7258,-15.7438,-15.7158,-15.736,-15.7491,-15.7259,-15.7523,-15.7528,-15.7588,-15.7913,-15.8055,-15.7931,-15.859,-15.8369,-15.8408,-15.8422,-15.8601,-15.8678,-15.8746,-15.7847,-15.7842,-15.7839,0,0,-15.6673,-15.6849,-15.6843,-15.715,-15.7189,-15.7133,-15.7221,-15.7143,-15.7205,-15.723,-15.7233,-15.7296,-15.7441,-15.7541,-15.7674,-15.8041,-15.8044,-15.8216,-15.8276,-15.8325,-15.8366,-15.8558,-15.8634,-15.7823,-15.7823,-15.7822,0,0,-15.6561,-15.6568,-15.647,-15.6818,-15.6885,-15.6896,-15.7085,-15.6965,-15.7078,-15.7042,-15.6918,-15.6929,-15.7231,-15.7241,-15.7044,-15.7583,-15.7336,-15.7382,-15.7565,-15.764,-15.7698,-15.7689,-15.6758,0,0,0,0,0,-15.6238,-15.6566,-15.6478,-15.6526,-15.6735,-15.6946,-15.6971,-15.6878,-15.6705,-15.6857,-15.6839,-15.6685,-15.7108,-15.6931,-15.6978,-15.7199,-15.7624,-15.766,-15.7693,-15.8015,-15.8094,-15.816,0,0,0,0,0,0,-15.6255,-15.6315,-15.6469,-15.6497,-15.6542,-15.6933,-15.662,-15.6603,-15.6687,-15.6654,-15.6694,-15.6686,-15.6608,-15.69,-15.6944,-15.7156,-15.6743,-15.7638,-15.7668,-15.7695,-15.8042,-15.8106,-15.8161,0,0,0,0,0,-15.6269,-15.6316,-15.6678,-15.6491,-15.6531,-15.6486,-15.6607,-15.659,-15.6653,-15.6627,-15.6614,-15.6575,-15.6617,-15.6647,-15.6925,-15.7139,-15.6712,-15.6728,-15.7658,-15.7681,-15.7702,-15.8074,0,0,0,0,0,0,-15.6279,-15.6301,-15.6683,-15.6692,-15.6361,-15.6461,-15.6474,-15.658,-15.6618,-15.661,-15.65,-15.6474,-15.6628,-15.6649,-15.6673,-15.7138,-15.6686,-15.6703,-15.6714,-15.7676,-15.7694,-15.7711,0,0,0,0,0,0,-15.6275,-15.631,-15.6687,-15.6528,-15.6517,-15.644,-15.6452,-15.6673,-15.6621,-15.6488,-15.6467,-15.6488,-15.6589,-15.6652,-15.667,-15.702,-15.6667,-15.6683,-15.6694,-15.6701,-15.7691,-15.7705,0,0,0,0,0,0,-15.6288,-15.6318,-15.6525,-15.6517,-15.6507,-15.6594,-15.6633,-15.6852,-15.6488,-15.649,-15.6452,-15.6436,-15.6597,-15.6613,-15.6669,-15.7012,-15.7018,-15.6667,-15.6678,-15.6686,-15.6691,0,0,0,0,0,0,0,-15.6299,-15.6121,-15.6634,-15.6508,-15.6498,-15.677,-15.6772,-15.6774,-15.6485,-15.647,-15.6456,-15.6443,-15.6573,-15.6591,-15.6609,-15.7006,0,0,-15.6666,-15.6673,0,0,0,0,0,0,0,0,-15.6106,-15.6118,-15.6634,-15.6636,-15.6638,-15.677,-15.6772,-15.6774,-15.6482,-15.6471,-15.6459,-15.6448,-15.6578,-15.6593,-15.6607,0,0,0,0,0,0,0,0,0,0,0,0,0,0,0,-15.6634,-15.6636,0,-15.6771,-15.6772,-15.6774,-15.6481,-15.6471,-15.6462,-15.6453,-15.6582,-15.6594,-15.6606,0,0,0,0,0,0,0,0,0,0,0,0,0,0,0,0,0,0,0,0,0,0,0,0,0,0,0,0,0,0,0,0,0,0,0,0,0,0,0,0,0,0,0,0,0,0,0,0,0,0,0,0,0,0,0,0,0,0,0,0,0,0,0,0,0,0,0,0,0]}]]]